Torna al catalogo

KUIPER-00370

AttivoComunicazioniLEO
NORAD 68919·PAYLOAD·🇺🇸 United States

Lanciato Apr 30, 2026 da Guiana Space Centre

Loading…

Prossimi Passaggi (prossime 24 ore)

TLE

AggiornatoSource: CelesTrak SupGP

Epoca: Sep 15, 2026, 01:25 UTC

1 68919C 26098A   26258.05914352 -.00005561  00000+0 -72794-3 0  2588
2 68919  51.8999  20.6108 0000474 109.5510 285.2527 14.79938956    12

Traccia KUIPER-00370 in tempo reale con AllMySat

Download on the App Store